Zurück zum Katalog

EUTE KONNECT

AktivKommunikationGEO
NORAD 45027·PAYLOAD·🇪🇺 EU

Gestartet Jan 16, 2020 von Guiana Space Centre

Loading…

TLE

AktuellSource: Space-Track

Epoche: Sep 14, 2026, 13:50 UTC

1 45027U 20005B   26257.57648769  .00000042  00000-0  00000-0 0  9995
2 45027   0.0644 100.3376 0001594  92.9736  14.9736  1.00276181 25237

Verfolge EUTE KONNECT in Echtzeit mit AllMySat

Download on the App Store